This is the latest recevied weather packets stored in our database for station/object N8TWM-13. If no packets are shown the sender has not sent any weather packets the latest 10 day(s).
| Time | Temp. | Humidity | Pressure | Rain* | Wind** | Luminosity | Snow |
|---|---|---|---|---|---|---|---|
| 1778002041 | 18.33° C | 74% | 1008.6 hPa | 0 mm | - | 128 W/m² | - |
| 1778001738 | 17.78° C | 74% | 1008.1 hPa | 0 mm | - | 127 W/m² | - |
| 1778001433 | 17.78° C | 74% | 1008.5 hPa | 0 mm | - | 75 W/m² | - |
| 1778001131 | 17.78° C | 74% | 1008.5 hPa | 0 mm | - | 120 W/m² | - |
| 1778000827 | 17.78° C | 75% | 1008.9 hPa | 0 mm | - | 75 W/m² | - |
| 1778000524 | 17.78° C | 75% | 1008.6 hPa | 0 mm | - | 43 W/m² | - |
| 1778000224 | 17.78° C | 74% | 1008.7 hPa | 0 mm | - | 78 W/m² | - |
| 1777999920 | 17.78° C | 74% | 1008.6 hPa | 0 mm | - | 48 W/m² | - |
| 1777999616 | 17.78° C | 74% | 1008.7 hPa | 0 mm | - | 32 W/m² | - |
| 1777999313 | 17.78° C | 73% | 1008.6 hPa | 0 mm | - | 62 W/m² | - |
| 1777999012 | 18.33° C | 72% | 1008.6 hPa | 0 mm | - | 127 W/m² | - |
| 1777998709 | 18.33° C | 71% | 1008.5 hPa | 0 mm | - | 86 W/m² | - |
| 1777998407 | 18.33° C | 71% | 1008.6 hPa | 0 mm | - | 62 W/m² | - |
| 1777998104 | 18.89° C | 70% | 1008.5 hPa | 0 mm | - | 111 W/m² | - |
| 1777997801 | 19.44° C | 67% | 1008.5 hPa | 0 mm | - | 139 W/m² | - |
| 1777997498 | 19.44° C | 67% | 1008.4 hPa | 0 mm | - | 252 W/m² | - |
| 1777997196 | 20° C | 66% | 1008.4 hPa | 0 mm | - | 354 W/m² | - |
| 1777996893 | 20° C | 65% | 1008.1 hPa | 0 mm | - | 396 W/m² | - |
| 1777996589 | 20° C | 64% | 1008.5 hPa | 0 mm | - | 577 W/m² | - |
| 1777996285 | 20° C | 64% | 1008.5 hPa | 0 mm | - | 613 W/m² | - |
| 1777995981 | 20° C | 65% | 1008.6 hPa | 0 mm | - | 370 W/m² | - |
| 1777995678 | 20.56° C | 64% | 1008 hPa | 0 mm | - | 298 W/m² | - |
| 1777995375 | 20° C | 64% | 1008.1 hPa | 0 mm | - | 564 W/m² | - |
| 1777995072 | 20° C | 62% | 1008 hPa | 0 mm | - | 538 W/m² | - |
| 1777994769 | 20° C | 63% | 1007.6 hPa | 0 mm | - | 327 W/m² | - |
* Rain latest hour (hover to see other rain measurements)
** Current wind speed in m/s (hover to see current wind gust speed)